Regional Weather Roundup
Issued by NWS

Home | Current Version | Previous Version | Text Only | Print | Product List | Glossary On
Versions: 1 2 3 4 5 6 7 8 9 10 11 12 13 14 15 16 17 18 19 20 21 22 23 24 25 26 27 28 29 30 31 32 33 34 35 36 37 38 39 40 41 42 43 44 45 46 47 48 49 50
000
ASUS44 KMEG 291210
RWRTN
TENNESSEE HOURLY STATE WEATHER ROUNDUP
NATIONAL WEATHER SERVICE MEMPHIS TN
700 AM CDT FRI MAY 29 2015

TNZ002-004-019-021-049-052-054-088>092-291300-
WEST TENNESSEE

CITY           SKY/WX    TMP DP  RH WIND       PRES   REMARKS
MEMPHIS INTL   PTSUNNY   71  67  87 SE6       30.06R
NWS MEMPHIS      N/A     70 N/A N/A MISG        N/A
JACKSON        CLOUDY    69  66  90 SE7       30.10R
DYERSBURG      PTSUNNY   68  55  64 SE3       30.09R
PARIS          CLOUDY    66  66 100 SE8       30.11R
LEXINGTON      CLOUDY    68  66  94 VRB3      30.12R
$$

TNZ008-025-027-028-033-062-065-066-291300-
NORTH MIDDLE TENNESSEE

CITY           SKY/WX    TMP DP  RH WIND       PRES   REMARKS
NASHVILLE      CLOUDY    69  66  90 S7        30.15R
CLARKSVILLE    PTSUNNY   68  65  90 SE9       30.12R
SMYRNA         CLOUDY    68  67  96 S3        30.16R
COOKEVILLE     SUNNY     66  66 100 CALM      30.18R
CROSSVILLE     CLOUDY    66  63  90 CALM      30.24R
$$

TNZ061-075-076-078-094-096-097-291300-
SOUTH MIDDLE TENNESSEE

CITY           SKY/WX    TMP DP  RH WIND       PRES   REMARKS
FAYETTEVILLE   SUNNY    N/A N/A N/A MISG      30.16S
TULLAHOMA      SUNNY     66  64  94 SE6       30.18S
WINCHESTER     SUNNY     68  64  88 SE12      30.18S
MCMINNVILLE    SUNNY     68  68 100 CALM      30.19R
COLUMBIA       PTSUNNY   70  66  88 S5        30.13R
SHELBYVILLE    PTSUNNY   70  66  88 SE6       30.16S
$$

TNZ017-018-042-046-047-291300-
NORTHEAST TENNESSEE

CITY           SKY/WX    TMP DP  RH WIND       PRES   REMARKS
TRI CITIES     PTSUNNY   64  63  96 CALM      30.26R FOG
ELIZABETHTON   SUNNY     64  61  88 NE5       30.26R
$$

TNZ012-013-036-069-073-074-291300-
CENTRAL EAST TENNESSEE

CITY           SKY/WX    TMP DP  RH WIND       PRES   REMARKS
KNOXVILLE      MOSUNNY   68  65  90 CALM      30.21
OAK RIDGE      MOSUNNY   67  64  90 CALM      30.23R
GATLINBURG       N/A     64  63  94 E3        30.22R
MORRISTOWN     SUNNY     68  64  88 E6        30.24R
$$

TNZ083-085-099-291300-
SOUTHEAST TENNESSEE

CITY           SKY/WX    TMP DP  RH WIND       PRES   REMARKS
CHATTANOOGA    PTSUNNY   69  66  90 CALM      30.20R FOG
$$

SKY/WX REPORTED AS FAIR MEANS FEW OR NO CLOUDS BELOW
12 THOUSAND FEET.



USA.gov is the U.S. government's official web portal to all federal, state and local government web resources and services.